Wind_Speed
21 23 25 21 19 20 18 18 18 15 12 12 10 7 6 5 8 9 11 16 18 14 10 5 1 3 6 7 10 13 14 16 14 12 12 14 17 20 21 19 17 17 20 18
24 24 25 22 20 19 18 19 20 18 19 17 16 11 6 5 4 8 9 13 14 7 2 3 6 5 5 7 9 13 14 14 15 16 17 19 21 20 17 15 13 15 15 14
28 27 27 22 19 20 20 21 20 19 15 13 15 15 17 11 9 7 6 7 8 9 6 4 4 3 4 5 7 9 10 12 13 15 19 21 17 13 13 14 14 15 16 14
23 24 23 24 21 19 20 21 23 22 22 21 17 14 14 18 15 10 8 7 5 3 3 3 3 3 4 8 10 11 12 13 16 19 20 17 15 15 15 15 16 15 15 15
18 20 21 22 19 15 11 14 18 18 19 21 24 22 18 19 20 18 15 11 9 7 8 7 8 8 10 13 16 17 18 19 19 20 19 17 16 17 17 15 14 13 14 15
19 19 19 20 19 15 13 13 15 16 18 19 25 22 20 20 19 19 18 14 12 11 11 11 12 13 14 14 14 15 16 16 17 19 20 19 19 19 18 15 13 13 13 14
18 17 17 17 17 17 16 14 14 15 15 16 18 18 17 18 17 17 15 13 13 14 14 15 16 17 17 18 18 18 18 18 19 21 21 21 21 20 19 17 15 14 13 14
16 16 16 16 14 14 14 12 9 9 10 11 12 13 15 16 16 16 15 14 16 18 18 18 18 18 18 17 17 17 18 19 20 21 21 21 20 19 16 14 14 15 16 17
19 19 17 16 11 10 11 10 9 8 8 8 9 11 12 14 15 15 14 14 15 15 15 15 16 17 17 17 18 18 19 19 20 21 21 20 19 17 15 13 13 14 14 15
23 25 20 14 10 8 7 6 7 7 7 6 7 8 10 13 14 15 16 16 15 14 14 14 15 17 18 20 21 20 20 20 20 21 21 19 16 15 14 13 13 13 13 14
25 29 29 19 10 6 5 4 5 5 5 5 5 6 9 11 12 13 14 16 17 16 15 15 16 16 17 17 18 19 19 19 18 18 18 16 15 15 15 15 13 11 11 12
28 29 31 31 20 9 3 2 1 2 3 4 4 4 6 8 10 11 12 16 20 19 16 16 16 16 15 15 15 16 16 16 17 18 19 18 16 15 14 16 15 14 14 14
29 30 30 31 30 20 7 4 4 4 6 7 8 6 6 9 11 12 13 15 18 18 16 17 16 16 15 14 14 14 16 17 18 20 21 20 17 16 16 16 16 16 17 17
27 30 29 29 29 29 20 9 5 6 8 9 12 11 8 8 9 10 11 12 14 15 15 16 15 15 14 14 15 15 16 17 17 19 21 22 21 19 18 17 19 20 20 20
23 26 29 30 27 26 25 18 10 11 13 12 11 13 10 9 8 8 9 10 11 12 13 14 15 14 14 15 15 15 15 15 16 17 19 21 21 21 20 21 21 21 23 25
19 22 25 28 28 25 25 27 22 13 11 10 11 12 10 7 8 8 8 8 9 10 11 12 13 13 13 14 14 14 15 16 16 17 17 17 18 19 20 21 23 24 26 29
15 19 22 24 26 27 25 25 29 25 12 8 9 9 7 6 8 9 7 6 6 7 9 10 11 12 13 13 14 14 14 15 16 17 17 17 17 18 19 21 23 25 27 28
17 18 20 20 22 24 24 22 24 29 25 14 10 8 8 8 9 9 8 6 6 6 6 8 9 9 11 13 13 13 14 15 15 16 16 17 17 17 19 21 23 25 27 28
21 20 19 17 17 19 21 21 21 23 26 24 15 11 9 7 6 8 9 8 7 7 6 6 7 8 9 11 12 12 12 13 15 15 15 16 17 17 17 18 20 23 25 26
22 21 18 16 15 16 18 19 20 20 20 21 22 17 11 7 7 9 11 11 10 9 8 6 5 6 7 9 10 11 11 12 13 14 15 16 17 17 17 16 16 19 21 22
21 21 19 16 15 15 16 18 20 21 21 19 18 18 15 11 10 13 16 15 14 12 9 7 5 4 6 8 9 9 10 10 10 12 14 16 17 17 17 16 15 16 17 18
22 22 22 20 17 16 16 17 19 21 22 22 21 17 15 14 17 19 22 18 16 13 11 8 6 3 4 7 8 8 8 8 8 10 13 15 15 15 15 16 15 15 15 15
24 23 23 24 23 20 19 19 19 21 23 24 25 24 24 25 28 27 19 9 14 14 12 9 7 4 3 4 7 8 7 7 7 8 11 13 15 14 13 12 12 13 14 15
27 26 24 25 26 25 24 22 21 21 23 23 25 26 27 26 28 31 20 5 15 16 14 11 9 7 6 5 6 8 8 8 8 9 10 11 14 14 13 11 10 10 12 13
30 29 27 26 27 28 28 26 24 22 23 22 23 24 24 23 21 22 15 6 13 15 14 13 11 10 10 9 7 8 9 9 8 9 10 10 11 12 12 11 10 10 11 12
36 32 31 30 29 29 29 29 27 25 24 22 21 21 21 21 17 13 10 2 9 12 14 15 15 13 13 13 10 10 11 10 10 9 10 11 10 10 11 10 10 9 10 11
42 36 33 32 32 31 30 30 31 29 27 23 21 21 20 19 16 11 8 6 8 13 14 14 15 16 16 16 15 14 14 13 11 11 10 10 10 10 10 9 8 9 9 10
Wind_Direction
39 48 64 72 64 63 70 78 73 70 69 61 54 63 80 77 89 139 134 128 137 139 141 140 263 297 296 309 326 332 329 336 351 352 342 336 337 327 313 298 297 303 305 288
44 49 57 71 78 82 81 77 65 57 71 64 56 74 89 112 114 130 143 149 158 154 139 8 333 328 337 330 339 335 339 348 350 346 341 335 329 320 310 302 309 312 311 300
51 52 56 68 79 85 86 79 74 67 60 52 49 62 61 86 137 138 106 116 176 204 238 290 333 30 68 36 4 352 350 351 342 340 335 330 332 327 316 314 314 311 307 297
47 49 59 65 79 87 86 78 76 76 78 76 73 71 62 72 95 106 92 82 85 92 57 2 348 14 353 341 347 343 344 349 345 338 331 333 340 337 324 310 301 299 298 291
42 45 48 56 62 77 77 70 69 76 82 86 87 81 78 80 79 79 72 66 68 67 61 48 33 19 1 353 354 354 351 344 337 328 324 320 321 325 319 303 287 288 292 289
46 43 41 44 49 53 53 60 64 75 86 87 87 85 83 81 78 75 70 65 63 58 46 33 21 14 5 2 359 350 343 338 334 330 328 324 318 316 312 301 287 285 288 289
32 33 34 34 39 44 54 63 71 79 78 73 72 71 67 66 64 63 61 56 47 46 38 28 20 12 3 360 356 352 345 340 336 332 329 324 319 316 311 302 293 284 281 285
11 14 12 18 28 38 53 61 69 73 76 72 68 66 62 58 48 39 32 31 34 36 29 20 15 9 6 3 1 356 352 348 342 337 332 328 326 324 317 304 290 283 282 281
358 354 350 358 8 22 33 44 53 58 62 59 62 63 58 52 45 41 44 42 37 30 22 16 11 5 2 1 1 0 358 352 347 343 341 339 337 333 324 312 298 290 288 288
12 5 353 342 347 9 35 45 49 57 62 60 56 52 47 44 45 48 46 39 28 19 9 2 2 2 359 356 355 358 358 354 354 352 349 350 354 355 349 334 317 308 306 307
20 21 20 14 359 3 34 62 68 60 41 29 36 37 38 41 44 50 47 35 23 14 10 7 5 4 4 4 2 2 0 358 359 359 0 5 9 11 5 358 352 342 331 323
20 22 25 26 21 15 3 359 108 87 18 356 351 8 29 33 34 39 36 24 18 18 20 16 14 13 13 9 3 2 6 14 16 13 16 19 18 16 14 14 16 12 5 358
14 17 21 24 28 27 6 297 266 281 333 348 347 343 358 8 15 22 19 13 14 18 18 19 20 17 11 6 9 16 19 22 21 20 23 25 24 23 21 17 13 10 9 7
8 11 16 22 27 29 24 1 301 280 322 334 346 345 330 337 357 11 9 2 8 16 11 13 16 14 13 19 24 24 24 24 24 26 28 27 26 25 21 18 14 12 14 13
2 4 10 16 24 30 30 19 331 291 303 313 326 338 326 318 334 353 1 1 3 9 5 9 12 12 15 22 23 21 22 24 23 25 26 27 27 27 26 27 27 26 25 22
353 358 2 6 13 22 27 26 16 343 312 306 310 315 320 320 334 337 347 354 355 358 359 7 12 12 15 19 17 19 25 28 26 24 23 26 28 29 31 33 34 32 31 28
333 346 350 356 1 6 14 23 26 25 17 350 327 314 315 323 331 327 326 334 336 342 346 357 7 12 14 17 14 16 26 30 30 28 27 28 31 35 36 37 37 38 39 38
306 316 331 338 347 355 4 15 23 25 27 17 4 346 322 312 315 312 308 307 307 307 321 337 346 1 11 12 15 15 20 26 29 30 31 32 33 35 35 37 38 40 43 46
292 300 314 319 332 345 354 2 11 19 25 29 20 1 347 326 321 323 307 294 281 275 284 304 320 338 4 6 11 16 19 25 30 30 28 28 29 29 31 37 41 39 40 44
284 287 299 304 313 329 341 348 354 2 14 27 29 23 8 343 319 313 304 283 270 264 263 272 301 329 355 4 8 12 16 24 31 31 30 31 30 30 29 36 43 44 41 41
278 277 280 291 294 309 322 332 340 344 350 360 14 23 22 12 350 323 296 275 259 247 245 249 269 321 353 358 2 6 11 16 22 24 24 27 28 30 30 31 34 37 38 39
273 271 269 276 282 289 303 312 322 329 332 337 342 349 357 357 346 325 297 266 242 225 222 231 242 270 339 353 353 358 2 5 6 17 23 22 20 22 25 26 29 32 36 36
271 267 265 265 267 270 285 294 303 314 322 326 330 332 337 346 349 344 324 265 205 192 197 209 219 238 283 336 343 346 346 347 348 357 12 20 18 15 16 18 24 29 30 30
267 267 264 263 264 264 271 279 284 296 308 315 322 329 335 346 353 1 14 120 165 174 187 201 216 235 260 288 314 326 334 334 333 336 348 7 16 16 16 16 18 22 22 22
265 265 266 265 264 266 268 272 273 279 292 301 311 321 330 340 356 7 27 129 172 187 195 204 220 238 251 263 280 300 316 328 330 328 329 342 2 12 17 19 20 21 19 18
266 266 265 266 266 265 265 265 265 267 277 288 298 309 319 328 339 354 11 311 224 221 221 225 234 245 255 261 267 279 294 309 321 324 324 326 336 355 9 15 15 14 11 9
263 262 260 260 262 262 261 259 258 259 264 272 282 292 303 312 317 321 322 321 261 245 245 246 246 247 255 265 274 278 283 290 302 312 318 320 322 329 347 360 4 5 3 0
Height
5778 5772 5768 5765 5764 5762 5760 5761 5762 5761 5761 5761 5760 5761 5762 5763 5766 5769 5771 5772 5773 5776 5777 5778 5780 5780 5779 5778 5778 5779 5779 5780 5780 5781 5782 5780 5777 5775 5775 5774 5769 5765 5761 5759
5784 5779 5775 5772 5770 5769 5768 5767 5767 5766 5766 5765 5764 5763 5764 5764 5766 5769 5772 5774 5776 5778 5778 5780 5779 5779 5778 5779 5779 5779 5779 5778 5777 5777 5776 5776 5775 5774 5770 5768 5763 5759 5757 5757
5791 5786 5782 5779 5778 5776 5776 5774 5774 5771 5769 5766 5767 5769 5770 5769 5768 5772 5776 5777 5778 5780 5782 5782 5781 5780 5779 5780 5780 5780 5780 5778 5777 5775 5774 5773 5771 5769 5766 5763 5760 5759 5757 5755
5798 5796 5791 5788 5784 5783 5782 5780 5778 5776 5774 5772 5773 5773 5775 5774 5776 5778 5779 5779 5780 5781 5782 5782 5782 5780 5780 5780 5779 5779 5778 5777 5775 5773 5771 5768 5766 5764 5762 5760 5758 5756 5754 5752
5805 5802 5799 5796 5792 5789 5788 5785 5783 5781 5779 5778 5777 5778 5779 5779 5779 5780 5781 5783 5783 5784 5784 5784 5782 5780 5779 5777 5775 5773 5773 5773 5773 5771 5769 5767 5763 5760 5758 5755 5753 5751 5749 5747
5811 5808 5805 5803 5799 5796 5794 5791 5788 5786 5785 5784 5781 5784 5785 5783 5783 5783 5783 5785 5786 5786 5784 5784 5782 5779 5777 5776 5775 5775 5774 5773 5770 5768 5764 5760 5757 5754 5752 5750 5748 5746 5744 5742
5815 5813 5810 5808 5804 5801 5799 5798 5795 5793 5791 5790 5789 5789 5788 5786 5786 5786 5786 5787 5786 5784 5783 5782 5780 5779 5777 5774 5771 5769 5769 5766 5764 5762 5759 5756 5753 5749 5747 5745 5743 5741 5739 5737
5818 5816 5816 5811 5808 5806 5804 5801 5800 5799 5798 5796 5795 5794 5793 5792 5790 5788 5786 5785 5782 5780 5782 5781 5780 5777 5774 5772 5770 5768 5766 5764 5761 5758 5755 5752 5748 5744 5742 5740 5739 5737 5734 5732
5821 5819 5815 5811 5810 5808 5806 5804 5803 5803 5802 5801 5799 5798 5798 5796 5794 5793 5791 5789 5787 5786 5785 5783 5781 5778 5775 5772 5769 5767 5765 5762 5760 5756 5753 5749 5745 5741 5738 5735 5733 5731 5728 5726
5822 5818 5813 5810 5809 5808 5807 5806 5805 5804 5804 5803 5803 5802 5801 5799 5797 5795 5793 5792 5791 5789 5787 5785 5781 5777 5774 5771 5768 5766 5763 5761 5759 5756 5752 5747 5743 5740 5736 5733 5729 5726 5724 5722
5826 5821 5815 5810 5807 5807 5806 5806 5806 5806 5806 5806 5805 5804 5804 5803 5802 5800 5798 5796 5793 5791 5788 5785 5782 5778 5775 5772 5769 5766 5764 5761 5758 5755 5751 5747 5744 5740 5736 5732 5728 5725 5722 5719
5829 5824 5819 5814 5809 5807 5806 5806 5806 5807 5807 5807 5807 5806 5806 5804 5803 5801 5800 5797 5794 5791 5788 5786 5783 5780 5777 5773 5770 5768 5765 5762 5759 5756 5752 5748 5745 5741 5737 5733 5729 5726 5723 5719
5831 5826 5822 5818 5813 5809 5806 5805 5805 5806 5807 5806 5806 5805 5805 5803 5802 5800 5798 5797 5794 5792 5790 5788 5785 5782 5778 5775 5772 5769 5767 5764 5761 5757 5753 5750 5746 5742 5739 5735 5730 5727 5723 5718
5834 5829 5824 5821 5817 5813 5808 5806 5805 5805 5805 5805 5804 5804 5803 5802 5802 5801 5799 5798 5796 5793 5792 5790 5787 5784 5780 5777 5774 5771 5768 5766 5763 5760 5756 5752 5748 5745 5741 5736 5732 5728 5724 5719
5836 5832 5828 5823 5820 5816 5812 5808 5805 5804 5804 5804 5804 5803 5802 5802 5801 5800 5799 5798 5797 5794 5793 5791 5789 5786 5783 5779 5776 5773 5770 5768 5765 5762 5759 5755 5751 5748 5744 5740 5735 5732 5727 5722
5836 5833 5830 5826 5822 5818 5816 5812 5806 5803 5802 5801 5801 5801 5800 5800 5799 5799 5798 5798 5797 5795 5794 5792 5789 5788 5785 5782 5779 5775 5772 5770 5767 5764 5761 5758 5754 5751 5747 5744 5740 5735 5731 5726
5835 5833 5831 5828 5824 5820 5816 5814 5809 5803 5800 5799 5798 5797 5798 5799 5798 5798 5798 5797 5796 5795 5794 5792 5790 5789 5787 5785 5782 5778 5774 5772 5769 5766 5763 5760 5757 5754 5751 5748 5744 5740 5736 5732
5833 5832 5830 5828 5825 5821 5817 5813 5810 5806 5802 5799 5797 5795 5796 5797 5797 5797 5796 5796 5796 5795 5794 5793 5791 5790 5788 5787 5784 5780 5777 5774 5772 5769 5767 5764 5761 5758 5755 5751 5748 5744 5741 5737
5829 5828 5828 5826 5824 5821 5818 5814 5811 5808 5805 5800 5797 5795 5794 5794 5794 5794 5794 5794 5794 5793 5793 5793 5792 5790 5788 5787 5785 5783 5780 5777 5774 5772 5769 5766 5763 5760 5757 5755 5752 5749 5745 5742
5824 5824 5824 5823 5821 5819 5817 5814 5811 5808 5806 5802 5799 5795 5793 5793 5792 5791 5789 5789 5790 5790 5790 5791 5790 5790 5789 5788 5786 5784 5782 5779 5777 5774 5772 5768 5765 5763 5761 5758 5756 5753 5750 5747
5818 5818 5819 5818 5817 5816 5815 5812 5810 5807 5804 5803 5800 5796 5794 5792 5790 5788 5785 5783 5784 5785 5787 5788 5788 5788 5788 5787 5786 5785 5783 5782 5779 5776 5774 5771 5769 5766 5764 5762 5759 5756 5754 5751
5811 5812 5812 5813 5813 5813 5812 5810 5807 5805 5803 5800 5798 5795 5792 5789 5786 5781 5775 5774 5776 5779 5783 5785 5786 5787 5787 5787 5786 5785 5784 5783 5781 5779 5776 5774 5771 5769 5767 5765 5762 5759 5756 5754
5802 5804 5805 5805 5806 5807 5807 5806 5805 5803 5801 5798 5795 5792 5788 5784 5779 5772 5765 5763 5768 5774 5779 5782 5784 5785 5786 5786 5786 5785 5784 5783 5782 5780 5778 5775 5772 5770 5767 5766 5764 5762 5759 5757
5794 5795 5796 5797 5797 5799 5800 5800 5800 5799 5798 5796 5793 5789 5785 5781 5776 5769 5764 5762 5766 5772 5776 5779 5781 5783 5784 5784 5784 5784 5783 5782 5781 5780 5779 5776 5773 5771 5768 5767 5765 5764 5761 5759
5784 5786 5787 5788 5789 5790 5792 5793 5794 5794 5793 5792 5790 5787 5784 5781 5778 5774 5770 5768 5769 5772 5775 5777 5779 5780 5781 5782 5782 5782 5781 5780 5779 5778 5778 5777 5774 5772 5769 5767 5765 5764 5763 5761
5774 5776 5778 5778 5780 5781 5782 5784 5785 5786 5787 5786 5786 5784 5783 5780 5778 5776 5774 5773 5774 5774 5774 5776 5777 5777 5778 5779 5779 5779 5779 5779 5778 5776 5775 5775 5774 5772 5770 5768 5766 5764 5763 5762
5760 5764 5766 5768 5768 5770 5772 5775 5776 5778 5780 5780 5779 5779 5779 5778 5776 5775 5774 5773 5772 5772 5773 5773 5773 5774 5774 5775 5776 5777 5777 5776 5776 5775 5773 5773 5772 5771 5770 5768 5766 5764 5763 5761